Weather History for South Lake Tahoe, CA

Change the Weather History Date:

Monday, April 16, 2012

  Actual Average Record
Temperature  
Mean Temperature 45 °F 40 °F  
Max Temperature 59 °F 54 °F 73 °F (1987)
Min Temperature 30 °F 27 °F 6 °F (1975)
Degree Days  
Heating Degree Days 20 25  
Month to date heating degree days 436 418  
Since 1 July heating degree days 5973 6570  
Cooling Degree Days 0 0  
Month to date cooling degree days 0 0  
Year to date cooling degree days 0 0  
Moisture  
Dew Point 31 °F    
Average Humidity 61    
Maximum Humidity 85    
Minimum Humidity 36    
Precipitation  
Precipitation 0.00 in - 0.62 in (1948)
Month to date precipitation 0.54  
Year to date precipitation 9.37  
Sea Level Pressure  
Sea Level Pressure 30.18 in    
Wind  
Wind Speed 3 mph (South)    
Max Wind Speed 20 mph    
Max Gust Speed 30 mph    
Visibility 10 miles    
Events      
T = Trace of Precipitation, MM = Missing Value Source: NWS Daily Summary

Daily Weather History Graph

Daily Weather History Graph

Search for Another Location

Airport:

Trip Planner

Search our weather history database for the weather conditions in past years. The results will help you decide how hot, cold, wet, or windy it might be!

Date:

Astronomy

Apr. 16, 2012 Rise Set
Actual Time 6:21 AM PDT 7:38 PM PDT
Civil Twilight 5:53 AM PDT 8:06 PM PDT
Nautical Twilight 5:20 AM PDT 8:39 PM PDT
Astronomical Twilight 4:45 AM PDT 9:14 PM PDT
Moon 3:50 AM PDT (4/16) 3:40 PM PDT (4/16)
Length of Visible Light 14h 12m
Length of Day
13h 17m
Waning Crescent, 18% of the Moon is Illuminated
Apr 16
Waning Crescent
Apr 21
New
Apr 29
First Quarter
May 5
Full
May 12
Last Quarter

Hourly Weather History & Observations

Time (PDT) Temp. Windchill Dew Point Humidity Pressure Visibility Wind Dir Wind Speed Gust Speed Precip Events Conditions
12:53 AM 32.0 °F - 28.0 °F 85% 30.19 in 10.0 mi Calm Calm - N/A   Clear
1:53 AM 32.0 °F - 27.0 °F 82% 30.17 in 10.0 mi Calm Calm - N/A   Clear
2:53 AM 30.9 °F - 27.0 °F 85% 30.16 in 10.0 mi Calm Calm - N/A   Clear
3:53 AM 30.0 °F - 26.1 °F 85% 30.16 in 10.0 mi Calm Calm - N/A   Clear
4:53 AM 30.0 °F - 26.1 °F 85% 30.16 in 10.0 mi Calm Calm - N/A   Clear
5:53 AM 30.0 °F 26.5 °F 26.1 °F 85% 30.18 in 10.0 mi South 3.5 mph - N/A   Partly Cloudy
6:53 AM 30.0 °F - 26.1 °F 85% 30.19 in 10.0 mi Calm Calm - N/A   Partly Cloudy
7:53 AM 32.0 °F - 27.0 °F 82% 30.24 in 10.0 mi Calm Calm - N/A   Mostly Cloudy
8:53 AM 37.9 °F - 30.0 °F 73% 30.22 in 10.0 mi Calm Calm - N/A   Clear
9:53 AM 48.0 °F - 33.1 °F 56% 30.20 in 10.0 mi NE 6.9 mph - N/A   Clear
10:53 AM 46.9 °F - 35.1 °F 63% 30.22 in 10.0 mi NNE 6.9 mph - N/A   Partly Cloudy
11:53 AM 57.0 °F - 33.1 °F 40% 30.17 in 10.0 mi South 15.0 mph 24.2 mph N/A   Scattered Clouds
12:53 PM 57.9 °F - 33.1 °F 39% 30.16 in 10.0 mi SSW 8.1 mph - N/A   Scattered Clouds
1:53 PM 59.0 °F - 32.0 °F 36% 30.15 in 10.0 mi Variable 6.9 mph 23.0 mph N/A   Partly Cloudy
2:53 PM 57.9 °F - 32.0 °F 37% 30.15 in 10.0 mi South 16.1 mph 29.9 mph N/A   Partly Cloudy
3:53 PM 55.9 °F - 32.0 °F 40% 30.16 in 10.0 mi Variable 5.8 mph - N/A   Scattered Clouds
4:53 PM 54.0 °F - 32.0 °F 43% 30.17 in 10.0 mi SSW 10.4 mph 16.1 mph N/A   Partly Cloudy
5:53 PM 52.0 °F - 34.0 °F 50% 30.18 in 10.0 mi SSW 9.2 mph - N/A   Mostly Cloudy
6:53 PM 50.0 °F - 34.0 °F 54% 30.19 in 10.0 mi Variable 4.6 mph - N/A   Mostly Cloudy
7:53 PM 48.0 °F - 35.1 °F 61% 30.18 in 10.0 mi South 11.5 mph - N/A   Partly Cloudy
8:53 PM 46.0 °F 43.1 °F 34.0 °F 63% 30.19 in 10.0 mi Variable 5.8 mph - N/A   Mostly Cloudy
9:53 PM 45.0 °F 42.6 °F 35.1 °F 68% 30.18 in 10.0 mi SSW 4.6 mph - N/A   Mostly Cloudy
10:53 PM 46.0 °F 41.4 °F 35.1 °F 66% 30.17 in 10.0 mi SSW 9.2 mph - N/A   Clear
11:53 PM 45.0 °F - 34.0 °F 65% 30.14 in 10.0 mi Calm Calm - N/A   Clear